Flag for Comoros Weather past 2 weeks in Mutsamudu, Comoros

81 °F


Feels Like: 85 °F
Forecast: 78 / 81 °F
Wind: 8 mph from Northwest

Location: Dzaoudzi / Pamanzi Mayotte

Current Time: Dec 1, 2015 at 12:16:03 AM

Latest Report: Nov 30, 2015 at 11:30 PM

Visibility: N/A

Pressure: 29.92 "Hg

Humidity: 79%

Dew point: 73 °F

Location of MutsamuduLocation

Historic Weather in Mutsamudu — Graph


Mutsamudu temperature yesterday

Maximum temperature yesterday: 88 °F (at 10:00 AM)
Minimum temperature yesterday: 81 °F (at 12:00 AM)
Average temperature yesterday: 84 °F

Past Weeks' High & Low Weather Summary

High90 °F (Nov 16, 10:30 AM)89% (Nov 26, 4:00 AM)32.84 "Hg (Nov 26, 4:00 AM)
Low75 °F (Nov 26, 4:00 AM)55% (Nov 16, 12:00 PM)29.74 "Hg (Nov 24, 3:30 PM)
Average83 °F73%29.88 "Hg
* Reported Nov 15 11:00 PM — Nov 30 11:00 PM, Mutsamudu, Weather by CustomWeather, © 2015

Note: Actual official high and low records may vary slightly from our data, if they occured in-between our weather recording intervals... More about our weather records


Mutsamudu weather history for previous 24 hours

Time TempWeatherWind HumidityBarometerVisibility
11:00 PM
Mon, Nov 30
81 °FWarm.9 mph79%29.92 "HgN/A
10:30 PM81 °FWarm.8 mph79%29.95 "HgN/A
10:00 PM82 °FWarm.8 mph74%29.95 "HgN/A
9:30 PM82 °FWarm.7 mph79%29.92 "HgN/A
9:00 PM82 °FPassing clouds.9 mph79%29.92 "HgN/A
8:30 PM82 °FPassing clouds.9 mph79%29.92 "HgN/A
8:00 PM82 °FPassing clouds.10 mph79%29.92 "HgN/A
7:30 PM82 °FPassing clouds.9 mph79%29.92 "HgN/A
7:00 PM82 °FPassing clouds.9 mph79%29.92 "HgN/A
6:30 PM82 °FPassing clouds.12 mph79%29.92 "HgN/A
6:00 PM82 °FPartly sunny.10 mph79%29.89 "HgN/A
5:30 PM82 °FPartly sunny.12 mph79%29.89 "HgN/A
5:00 PM84 °FPartly sunny.12 mph70%29.89 "HgN/A
4:30 PM84 °FPartly sunny.10 mph70%29.89 "HgN/A
4:00 PM86 °FPartly sunny.10 mph66%29.89 "HgN/A
3:30 PM86 °FPartly sunny.12 mph66%29.89 "HgN/A
3:00 PM86 °FBroken clouds.12 mph70%29.89 "HgN/A
2:30 PM86 °FBroken clouds.12 mph70%29.89 "HgN/A
2:00 PM86 °FBroken clouds.12 mph70%29.92 "HgN/A
1:30 PM86 °FScattered clouds.12 mph70%29.92 "HgN/A
1:00 PM84 °FBroken clouds.13 mph74%29.92 "HgN/A
12:39 PM84 °FScattered showers. Broken clouds.12 mph79%29.95 "HgN/A
12:04 PM88 °FPartly sunny.5 mph70%29.95 "HgN/A
11:30 AM88 °FPartly sunny.7 mph66%29.95 "HgN/A
11:00 AM88 °FScattered clouds.7 mph70%29.98 "HgN/A
10:30 AM88 °FPartly sunny.7 mph70%29.95 "HgN/A
10:00 AM88 °FPartly sunny.8 mph70%29.98 "HgN/A
9:30 AM86 °FScattered clouds.9 mph75%29.98 "HgN/A
9:00 AM86 °FScattered clouds.9 mph75%29.98 "HgN/A
8:30 AM84 °FScattered clouds.10 mph84%29.98 "HgN/A
8:00 AM82 °FSprinkles. Partly sunny.3 mph79%29.98 "HgN/A
7:30 AM84 °FScattered clouds.5 mph79%29.98 "HgN/A
6:30 AM84 °FPassing clouds.7 mph79%29.95 "HgN/A
6:00 AM82 °FScattered clouds.8 mph84%29.95 "HgN/A
5:30 AM82 °FScattered clouds.8 mph84%29.95 "HgN/A
5:00 AM82 °FPassing clouds.9 mph74%29.95 "HgN/A
4:00 AM82 °FPassing clouds.10 mph79%29.92 "HgN/A
3:30 AM82 °FPartly cloudy.8 mph79%29.92 "HgN/A
3:00 AM82 °FPassing clouds.8 mph79%29.92 "HgN/A
2:00 AM82 °FPassing clouds.7 mph79%29.95 "HgN/A
1:30 AM82 °FPassing clouds.5 mph79%29.92 "HgN/A
1:00 AM81 °FMostly cloudy.1 mph84%29.95 "HgN/A
12:30 AM81 °FPassing clouds.No wind84%29.95 "HgN/A
12:00 AM81 °FWarm.5 mph84%29.95 "HgN/A
Weather by CustomWeather, © 2015

See weather overviewHow to use our weather pages